Weather History for Idaho Falls, ID

Change the Weather History Date:

Wednesday, July 3, 2013

  Actual Average Record
Temperature  
Mean Temperature 75 °F 66 °F  
Max Temperature 93 °F 83 °F 95 °F (2008)
Min Temperature 57 °F 49 °F 39 °F (2005)
Degree Days  
Heating Degree Days 0 2  
Month to date heating degree days 0 6  
Since 1 June heating degree days 100 159  
Since 1 July heating degree days 0 6  
Cooling Degree Days 10 3  
Month to date cooling degree days 33 8  
Year to date cooling degree days 106 40  
Since 1 June cooling degree days 102 38  
Growing Degree Days 26 (Base 50)    
Moisture  
Dew Point 53 °F    
Average Humidity 52    
Maximum Humidity 84    
Minimum Humidity 20    
Precipitation  
Precipitation T in 0.01 in 0.57 in (1967)
Month to date precipitation T 0.04  
Year to date precipitation 1.94 5.98  
Sea Level Pressure  
Sea Level Pressure 29.93 in    
Wind  
Wind Speed 5 mph (West)    
Max Wind Speed 15 mph    
Max Gust Speed 21 mph    
Visibility 10 miles    
Events Rain    
T = Trace of Precipitation, MM = Missing Value Source: NWS Daily Summary

Daily Weather History Graph

Daily Weather History Graph

Search for Another Location

Airport:

Trip Planner

Search our weather history database for the weather conditions in past years. The results will help you decide how hot, cold, wet, or windy it might be!

Date:

Astronomy

Jul. 03, 2013 Rise Set
Actual Time 5:52 AM MDT 9:12 PM MDT
Civil Twilight 5:16 AM MDT 9:47 PM MDT
Nautical Twilight 4:30 AM MDT 10:34 PM MDT
Astronomical Twilight 3:33 AM MDT 11:31 PM MDT
Moon 2:36 AM MDT (7/3) 5:23 PM MDT (7/3)
Length of Visible Light 16h 31m
Length of Day
15h 20m
Waning Crescent, 18% of the Moon is Illuminated
Jul 3
Waning Crescent
Jul 8
New
Jul 15
First Quarter
Jul 22
Full
Jul 29
Last Quarter

Hourly Weather History & Observations

Time (MDT) Temp. Heat Index Dew Point Humidity Pressure Visibility Wind Dir Wind Speed Gust Speed Precip Events Conditions
12:53 AM 77.0 °F - 48.9 °F 37% 29.97 in 10.0 mi Calm Calm - N/A   Clear
1:53 AM 73.0 °F - 51.1 °F 46% 29.95 in 10.0 mi Calm Calm - N/A   Clear
2:53 AM 60.1 °F - 54.0 °F 80% 29.95 in 10.0 mi NW 6.9 mph - N/A   Clear
3:53 AM 61.0 °F - 55.0 °F 81% 29.95 in 10.0 mi Calm Calm - N/A   Clear
4:53 AM 61.0 °F - 54.0 °F 78% 29.96 in 10.0 mi North 4.6 mph - N/A   Clear
5:53 AM 63.0 °F - 53.1 °F 70% 29.96 in 10.0 mi Calm Calm - N/A   Clear
6:53 AM 60.1 °F - 54.0 °F 80% 30.01 in 10.0 mi Calm Calm - N/A   Clear
7:53 AM 70.0 °F - 53.1 °F 55% 30.00 in 10.0 mi South 5.8 mph - N/A   Scattered Clouds
8:53 AM 75.0 °F - 53.1 °F 46% 30.00 in 10.0 mi SSW 10.4 mph - N/A   Clear
9:53 AM 78.1 °F - 54.0 °F 43% 29.99 in 10.0 mi SSW 11.5 mph - N/A   Scattered Clouds
10:53 AM 81.0 °F 80.5 °F 54.0 °F 39% 29.97 in 10.0 mi SW 10.4 mph - N/A   Clear
11:53 AM 84.0 °F 82.5 °F 53.1 °F 34% 29.96 in 10.0 mi South 4.6 mph - N/A   Clear
12:53 PM 84.0 °F 83.0 °F 55.9 °F 38% 29.94 in 10.0 mi WNW 4.6 mph - N/A   Scattered Clouds
1:53 PM 86.0 °F 84.7 °F 55.9 °F 36% 29.92 in 10.0 mi West 3.5 mph - N/A   Scattered Clouds
2:53 PM 90.0 °F - 46.9 °F 23% 29.92 in 10.0 mi Calm Calm - N/A   Scattered Clouds
3:53 PM 88.0 °F 86.1 °F 55.0 °F 32% 29.90 in 9.0 mi Calm Calm - N/A   Scattered Clouds
4:53 PM 91.9 °F - 44.1 °F 19% 29.86 in 10.0 mi Calm Calm - N/A   Mostly Cloudy
5:53 PM 91.9 °F - 50.0 °F 24% 29.83 in 10.0 mi Calm Calm - N/A   Scattered Clouds
6:53 PM 87.8 °F 85.7 °F 53.6 °F 31% 29.84 in 10.0 mi WSW 6.9 mph - N/A   Scattered Clouds
7:53 PM 77.0 °F - 60.1 °F 56% 29.87 in 10.0 mi North 10.4 mph - N/A   Mostly Cloudy
8:53 PM 73.9 °F - 57.0 °F 55% 29.88 in 10.0 mi NNW 9.2 mph - N/A   Mostly Cloudy
9:53 PM 72.0 °F - 57.9 °F 61% 29.87 in 10.0 mi West 9.2 mph - 0.00 in Rain Light Rain
10:53 PM 73.0 °F - 55.9 °F 55% 29.86 in 10.0 mi West 9.2 mph - 0.00 in   Overcast
11:53 PM 73.9 °F - 54.0 °F 50% 29.86 in 10.0 mi NW 9.2 mph - N/A   Scattered Clouds